Flag for Canada Weather past 2 weeks in Nelson, British Columbia, Canada

Now
40 °F

Quite cool.


Feels Like: 37 °F
Forecast: 21 / 27 °F
Wind: 5 mph from Northeast

Location: Nelson

Current Time: Dec 20, 2014 at 12:58:40 PM

Latest Report: Dec 20, 2014 at 12:00 PM


Visibility: N/A

Pressure: 29.82 "Hg

Humidity: 80%

Dew point: 35 °F

Location of NelsonLocation

Historic Weather in Nelson — Graph

°F

Nelson temperature yesterday

Maximum temperature yesterday: 39 °F (at 9:00 PM)
Minimum temperature yesterday: 36 °F (at 1:00 AM)
Average temperature yesterday: 37 °F

Past Weeks' High & Low Weather Summary

 TemperatureHumidityPressure
High45 °F (Dec 10, 2:00 PM)100% (Dec 5, 4:00 PM)30.42 "Hg (Dec 5, 4:00 PM)
Low27 °F (Dec 14, 9:00 PM)62% (Dec 16, 1:00 PM)29.50 "Hg (Dec 11, 6:00 PM)
Average37 °F88%30.06 "Hg
* Reported Dec 5 12:00 Noon — Dec 20 12:00 Noon, Nelson, Weather by CustomWeather, © 2014

Note: Actual official high and low records may vary slightly from our data, if they occured in-between our weather recording intervals... More about our weather records

Advertising

Nelson weather history for previous 24 hours

 ConditionsComfort  
Time TempWeatherWind HumidityBarometerVisibility
12:00 PM
Dec 20
40 °FQuite cool.5 mph80%29.82 "HgN/A
11:00 AM40 °FChilly.6 mph85%29.85 "HgN/A
10:00 AM40 °FChilly.5 mph81%29.86 "HgN/A
9:00 AM38 °FChilly.3 mph91%29.89 "HgN/A
8:00 AM36 °FChilly.2 mph90%29.91 "HgN/A
7:00 AM36 °FChilly.3 mph91%29.93 "HgN/A
6:00 AM37 °FChilly.3 mph93%29.94 "HgN/A
5:00 AM36 °FChilly.3 mph92%29.95 "HgN/A
4:00 AM36 °FChilly.1 mph91%29.98 "HgN/A
3:00 AM37 °FChilly.8 mph94%30.01 "HgN/A
2:00 AM37 °FChilly.7 mph93%30.01 "HgN/A
1:00 AM37 °FChilly.6 mph93%30.00 "HgN/A
12:00 AM37 °FChilly.6 mph94%30.00 "HgN/A
11:00 PM
Dec 19
37 °FChilly.6 mph92%30.01 "HgN/A
10:00 PM38 °FChilly.5 mph93%30.01 "HgN/A
9:00 PM39 °FChilly.7 mph89%30.01 "HgN/A
8:00 PM38 °FChilly.5 mph94%29.98 "HgN/A
7:00 PM38 °FChilly.8 mph88%29.98 "HgN/A
6:00 PM38 °FChilly.8 mph94%29.96 "HgN/A
5:00 PM38 °FChilly.6 mph93%29.96 "HgN/A
4:00 PM36 °FChilly.8 mph99%29.94 "HgN/A
3:00 PM36 °FChilly.6 mph99%29.91 "HgN/A
2:00 PM38 °FChilly.6 mph93%29.90 "HgN/A
1:00 PM37 °FChilly.9 mph93%29.89 "HgN/A
12:00 PM37 °FChilly.7 mph94%29.89 "HgN/A
Weather by CustomWeather, © 2014

See weather overviewHow to use our weather pages